{"data":{"norad_id":56385,"intl_designator":"2023-061M","name":"STARLINK-6173","alt_names":[],"object_type":"PAYLOAD","status":"ACTIVE","operator":null,"country":"US","launch_date":"2023-05-04","launch_site_code":"AFETR","launch_vehicle":null,"mission":null,"orbit_class":"UNKNOWN","rcs_meters":null,"size_class":null,"mass_kg":null,"dimensions":null,"purposes":["comms"],"wikipedia_slug":null,"has_3d_model":false,"image_url":null,"decayed_at":null,"tle_current":{"epoch":"2026-05-25T05:21:02.340000Z","epoch_age_seconds":58976,"freshness":"FRESH","line1":"1 56385U 23061M   26145.22294375  .00000793  00000+0  38339-4 0  9999","line2":"2 56385  43.0034 125.7431 0001282 265.5219  94.5486 15.27579655168451","mean_motion":15.27579655,"eccentricity":0.0001282,"inclination_deg":43.0034,"raan_deg":125.7431,"arg_perigee_deg":265.5219,"mean_anomaly_deg":94.5486,"bstar":3.8339e-5,"rev_number":16845,"period_min":94.266770003558,"perigee_km":482.17052490401,"apogee_km":483.92973328391,"semimajor_km":6861.187129094,"source":"CELESTRAK","updated_at":"2026-05-25T13:38:18.012543Z"}}}